Powrót do katalogu

STARLINK-34469

AktywnyŁącznośćVLEO
NORAD 64615·PAYLOAD·🇺🇸 United States

Wystrzelony Jun 25, 2025 z Cape Canaveral Space Force Station

Loading…

Następne Przeloty (najbliższe 24 godziny)

TLE

ŚwieżeSource: CelesTrak SupGP

Epoka: Sep 14, 2026, 23:13 UTC

1 64615C 25137X   26257.96784722 -.00071718  00000+0 -21187-2 0  2570
2 64615  53.1594 175.2608 0001339  85.4180 340.4563 15.34429548    13

Śledź STARLINK-34469 w czasie rzeczywistym z AllMySat

Download on the App Store